ACA911 KLGA-CYYZ

Flight info

Callsign ACA911
Flight time N/A
Altitude 34000
Route GAYEL Q818 WOZEE LINNG3
Aircraft A321/M-SDE3FGHIRWY/LB1

Departure

Time 2026-05-08 01:04
Airport LaGuardia Airport (KLGA)

Arrival

Time N/A
Airport Toronto Pearson International Airport (CYYZ)
Time Latitude Longitude Altitude Speed Heading
2026-05-08 00:21 40.77439 -73.86841 20 ft 0 kts 264°
2026-05-08 00:50 40.77440 -73.86833 19 ft 4 kts 264°
2026-05-08 00:50 40.77443 -73.86800 19 ft 4 kts 265°
2026-05-08 00:51 40.77443 -73.86773 18 ft 4 kts 287°
2026-05-08 00:51 40.77429 -73.86746 23 ft 4 kts 325°
2026-05-08 00:51 40.77413 -73.86730 20 ft 0 kts 314°
2026-05-08 00:57 40.77419 -73.86735 4 ft 4 kts 328°
2026-05-08 00:57 40.77443 -73.86705 17 ft 7 kts 67°
2026-05-08 00:58 40.77493 -73.86701 13 ft 10 kts 314°
2026-05-08 00:58 40.77529 -73.86769 13 ft 8 kts 308°
2026-05-08 00:58 40.77556 -73.86817 13 ft 5 kts 306°
2026-05-08 00:58 40.77585 -73.86876 14 ft 12 kts 302°
2026-05-08 00:59 40.77630 -73.86970 14 ft 11 kts 302°
2026-05-08 00:59 40.77681 -73.86990 13 ft 9 kts 20°
2026-05-08 00:59 40.77723 -73.87025 13 ft 7 kts 304°
2026-05-08 00:59 40.77748 -73.87079 13 ft 7 kts 301°
2026-05-08 01:00 40.77772 -73.87131 15 ft 7 kts 302°
2026-05-08 01:00 40.77800 -73.87190 13 ft 11 kts 302°
2026-05-08 01:00 40.77834 -73.87325 15 ft 19 kts 274°
2026-05-08 01:00 40.77807 -73.87484 15 ft 16 kts 240°
2026-05-08 01:01 40.77728 -73.87593 20 ft 17 kts 214°
2026-05-08 01:01 40.77615 -73.87688 21 ft 22 kts 213°
2026-05-08 01:01 40.77472 -73.87807 21 ft 25 kts 212°
2026-05-08 01:01 40.77326 -73.87928 20 ft 24 kts 212°
2026-05-08 01:02 40.77188 -73.88040 21 ft 22 kts 211°
2026-05-08 01:02 40.77062 -73.88141 23 ft 20 kts 211°
2026-05-08 01:02 40.77020 -73.88182 26 ft 2 kts 224°
2026-05-08 01:02 40.77017 -73.88185 25 ft 0 kts 224°
2026-05-08 01:03 40.76999 -73.88209 26 ft 7 kts 225°
2026-05-08 01:03 40.76951 -73.88277 28 ft 14 kts 228°
2026-05-08 01:03 40.76920 -73.88366 30 ft 7 kts 287°
2026-05-08 01:03 40.76963 -73.88374 30 ft 10 kts 23°
2026-05-08 01:04 40.77090 -73.88269 30 ft 45 kts 33°
2026-05-08 01:04 40.77565 -73.87883 25 ft 111 kts 32°
2026-05-08 01:04 40.78363 -73.87219 125 ft 150 kts 32°
2026-05-08 01:04 40.79205 -73.86485 837 ft 141 kts 32°
2026-05-08 01:05 40.80027 -73.85778 1504 ft 141 kts 28°
2026-05-08 01:05 40.80911 -73.85107 1940 ft 158 kts 27°
2026-05-08 01:05 40.81934 -73.84358 2246 ft 177 kts 27°
2026-05-08 01:05 40.83077 -73.83529 2375 ft 198 kts 27°
2026-05-08 01:06 40.84343 -73.82618 2517 ft 217 kts 27°
2026-05-08 01:06 40.85744 -73.81590 2672 ft 243 kts 27°
2026-05-08 01:06 40.87267 -73.80467 3163 ft 256 kts 27°
2026-05-08 01:06 40.88885 -73.79454 3833 ft 260 kts 11°
2026-05-08 01:07 40.90678 -73.79431 4519 ft 260 kts 342°
2026-05-08 01:07 40.92254 -73.80553 5217 ft 259 kts 313°
2026-05-08 01:07 40.93320 -73.82453 5979 ft 258 kts 298°
2026-05-08 01:07 40.94227 -73.84501 6757 ft 259 kts 297°
2026-05-08 01:08 40.95123 -73.86568 7496 ft 260 kts 297°
2026-05-08 01:08 40.96022 -73.88651 8245 ft 261 kts 297°
2026-05-08 01:08 40.96924 -73.90748 8991 ft 263 kts 297°
2026-05-08 01:08 40.97834 -73.92851 9791 ft 264 kts 297°
2026-05-08 01:09 40.98743 -73.94960 10240 ft 276 kts 297°
2026-05-08 01:09 40.99779 -73.97213 10364 ft 299 kts 305°
2026-05-08 01:09 41.01394 -73.99119 10505 ft 324 kts 320°
2026-05-08 01:09 41.03266 -74.00877 10877 ft 334 kts 321°
2026-05-08 01:10 41.05183 -74.02648 11504 ft 337 kts 320°
2026-05-08 01:10 41.07117 -74.04422 12146 ft 340 kts 320°
2026-05-08 01:10 41.09071 -74.06220 12767 ft 344 kts 320°
2026-05-08 01:10 41.11042 -74.08042 13378 ft 347 kts 319°
2026-05-08 01:11 41.13033 -74.09888 13964 ft 351 kts 319°
2026-05-08 01:11 41.15043 -74.11755 14498 ft 355 kts 319°
2026-05-08 01:11 41.17075 -74.13643 15003 ft 358 kts 318°
2026-05-08 01:11 41.19128 -74.15554 15523 ft 362 kts 317°
2026-05-08 01:12 41.21198 -74.17481 16027 ft 366 kts 317°
2026-05-08 01:12 41.23287 -74.19430 16537 ft 369 kts 317°
2026-05-08 01:12 41.25397 -74.21407 17036 ft 373 kts 316°
2026-05-08 01:12 41.27522 -74.23402 17534 ft 376 kts 316°
2026-05-08 01:13 41.29668 -74.25414 17999 ft 379 kts 316°
2026-05-08 01:13 41.31838 -74.27442 18408 ft 383 kts 316°
2026-05-08 01:13 41.34003 -74.29466 18908 ft 384 kts 315°
2026-05-08 01:13 41.36191 -74.31519 19364 ft 385 kts 315°